Waarnemingen

Advertentie
Mijn weer
Cap Bear, Frankrijk (7749): temperatuur & dauwpunt: 18.04.2018 10:00:00 - 24.04.2018 10:00:00 (CEST)Cap Bear, Frankrijk (7749): windsnelheid & windstoten: 18.04.2018 10:00:00 - 24.04.2018 10:00:00 (CEST)Cap Bear, Frankrijk (7749): windrichting: 18.04.2018 10:00:00 - 24.04.2018 10:00:00 (CEST)Cap Bear, Frankrijk (7749): luchtdruk: 18.04.2018 10:00:00 - 24.04.2018 10:00:00 (CEST)Cap Bear, Frankrijk (7749): zicht: 18.04.2018 10:00:00 - 24.04.2018 10:00:00 (CEST)Cap Bear, Frankrijk (7749): neerslag: 18.04.2018 10:00:00 - 24.04.2018 10:00:00 (CEST)
Datum & Tijd tt [°C] td [°C] ff [km/u] ff [kn] fx [km/u] fx [kn] dd ppp [hPa] vv [km] rr [mm]
24.04.2018 10:00:00 19,8 14,4 22 12 32 17 NW 1019,4 - 0,0
24.04.2018 09:00:00 20,0 12,5 26 14 32 18 NW 1019,1 - 0,0
24.04.2018 08:00:00 20,2 12,2 23 12 30 16 WNW 1018,9 - 0,0
24.04.2018 07:00:00 18,8 11,6 25 13 38 21 WNW 1018,4 - 0,0
24.04.2018 06:00:00 18,9 11,5 31 17 37 20 NW 1018,4 - 0,0
24.04.2018 05:00:00 18,5 10,6 29 16 36 19 NW 1018,8 20 0,0
24.04.2018 04:00:00 18,6 11,4 31 17 40 22 NW 1019,0 - 0,0
24.04.2018 03:00:00 17,4 13,7 19 10 29 16 NNW 1019,4 - 0,0
24.04.2018 02:00:00 19,2 11,2 26 14 32 18 NW 1019,3 - 0,0
24.04.2018 01:00:00 17,7 13,2 18 10 30 16 NW 1019,4 - 0,0
24.04.2018 00:00:00 19,0 12,7 19 10 31 17 NW 1019,3 10 0,0
23.04.2018 23:00:00 19,7 12,5 12 6 24 13 NW 1019,6 - 0,0
23.04.2018 22:00:00 21,8 10,3 20 11 29 16 WNW 1019,0 - 0,0
23.04.2018 21:00:00 19,9 13,8 23 12 42 23 NW 1018,8 - 0,0
23.04.2018 20:00:00 20,4 14,1 29 16 37 20 WNW 1018,7 10 0,0
23.04.2018 19:00:00 18,3 14,4 9 5 16 9 WNW 1018,8 - 0,0
23.04.2018 18:00:00 17,4 14,5 4 2 19 10 W 1019,1 - 0,0
23.04.2018 17:00:00 17,7 15,0 16 9 18 10 Z 1018,8 15 0,0
23.04.2018 16:00:00 17,7 14,6 11 6 13 7 Z 1019,4 - 0,0
23.04.2018 15:00:00 18,2 13,7 7 4 14 8 Z 1019,9 - 0,0
23.04.2018 14:00:00 19,0 13,4 5 3 9 5 O 1020,0 15 0,0
23.04.2018 13:00:00 19,3 13,5 6 3 11 6 NO 1020,2 - 0,0
23.04.2018 12:00:00 18,9 13,7 10 5 13 7 N 1020,2 - 0,0
23.04.2018 11:00:00 18,3 13,4 12 6 24 13 N 1020,1 15 0,0
23.04.2018 10:00:00 17,5 13,6 23 12 34 18 NW 1019,8 - 0,0
23.04.2018 09:00:00 16,2 13,3 27 15 36 20 NW 1019,3 - 0,0
23.04.2018 08:00:00 15,7 12,6 27 14 37 20 NW 1019,1 - 0,0
23.04.2018 07:00:00 15,2 12,9 24 13 35 19 NW 1018,3 - 0,0
23.04.2018 06:00:00 15,0 13,0 21 12 28 15 NW 1018,4 - 0,0
23.04.2018 05:00:00 14,6 12,6 20 11 26 14 NW 1018,3 15 0,0
23.04.2018 04:00:00 15,0 13,2 8 4 11 6 NW 1018,1 - 0,0
23.04.2018 03:00:00 15,5 13,7 5 3 11 6 ZZW 1017,7 - 0,0
23.04.2018 02:00:00 15,6 14,0 9 5 26 14 N 1018,1 - 0,0
23.04.2018 01:00:00 15,5 13,5 22 12 33 18 NW 1018,0 - 0,0
23.04.2018 00:00:00 15,8 13,6 28 15 33 18 NW 1017,7 - 0,0
22.04.2018 23:00:00 16,1 13,4 27 15 30 16 NW 1017,4 - 0,0
22.04.2018 22:00:00 17,1 13,2 16 9 24 13 NW 1017,2 - 0,0
22.04.2018 21:00:00 17,6 12,7 16 8 24 13 WNW 1016,2 - 0,0
22.04.2018 20:00:00 17,1 12,4 18 10 22 12 NW 1016,0 10 0,0
22.04.2018 19:00:00 17,4 14,7 8 4 10 6 NW 1015,6 - 0,0
22.04.2018 18:00:00 18,7 14,8 3 1 10 6 NNW 1016,0 - 0,0
22.04.2018 17:00:00 18,3 13,4 6 3 11 6 O 1016,3 10 0,0
22.04.2018 16:00:00 18,1 13,8 4 2 11 6 O 1016,8 - 0,0
22.04.2018 15:00:00 17,4 14,7 7 4 18 10 ZZO 1017,4 - 0,0
22.04.2018 14:00:00 17,4 14,7 12 6 17 9 ZZO 1017,7 10 0,0
22.04.2018 13:00:00 17,3 14,2 9 5 13 7 ZO 1018,2 - 0,0
22.04.2018 12:00:00 17,4 13,7 8 5 18 10 NNO 1018,3 - 0,0
22.04.2018 11:00:00 16,5 12,5 18 10 22 12 NW 1017,9 10 0,0
22.04.2018 10:00:00 16,1 13,0 18 10 22 12 NW 1017,6 - 0,0
22.04.2018 09:00:00 15,4 12,9 19 10 24 13 NW 1017,3 - 0,0
22.04.2018 08:00:00 14,1 12,7 16 8 19 10 NNW 1016,9 15 0,0
22.04.2018 07:00:00 14,5 12,9 9 5 14 8 NNW 1016,4 - 0,0
22.04.2018 06:00:00 14,8 13,2 6 4 20 11 NW 1016,1 - 0,0
22.04.2018 05:00:00 15,1 13,5 17 9 21 11 WNW 1016,4 15 0,0
22.04.2018 04:00:00 15,4 13,2 15 8 23 12 WNW 1016,6 - 0,0
22.04.2018 03:00:00 16,1 13,0 18 10 21 11 NW 1016,8 - 0,0
22.04.2018 02:00:00 17,5 11,7 6 3 16 9 NW 1017,1 - 0,0
22.04.2018 01:00:00 18,4 11,0 6 4 19 11 NW 1017,3 - 0,0
22.04.2018 00:00:00 18,8 12,1 7 4 31 17 WNW 1017,4 - 0,0
21.04.2018 23:00:00 18,8 11,6 6 3 51 27 WZW 1017,5 - 0,0
21.04.2018 22:00:00 20,7 9,3 29 16 44 24 Z 1017,3 - 0,0
21.04.2018 21:00:00 17,9 13,2 28 15 37 20 Z 1017,1 - 0,0
21.04.2018 20:00:00 17,9 13,8 28 15 45 25 Z 1017,0 - 0,0
21.04.2018 19:00:00 17,7 13,8 39 21 45 24 ZZO 1016,9 - 0,0
21.04.2018 18:00:00 17,2 14,5 41 22 51 28 ZZO 1017,9 - 0,0
21.04.2018 17:00:00 17,1 14,4 47 26 53 28 ZZO 1018,1 15 0,0
21.04.2018 16:00:00 17,4 14,1 41 22 45 24 ZO 1018,8 - 0,0
21.04.2018 15:00:00 17,5 14,4 36 20 41 22 ZO 1019,4 - 0,0
21.04.2018 14:00:00 17,7 13,8 13 7 24 13 ZZO 1019,9 20 0,0
21.04.2018 13:00:00 17,8 13,1 12 7 19 10 ZZO 1020,5 - 0,0
21.04.2018 12:00:00 17,4 12,9 6 4 11 6 O 1020,9 - 0,0
21.04.2018 11:00:00 16,8 12,3 5 3 15 8 NNW 1020,8 - 0,0
21.04.2018 10:00:00 16,2 11,1 11 6 17 9 NW 1020,7 - 0,0
21.04.2018 09:00:00 15,6 10,1 8 5 12 6 NW 1021,0 - 0,0
21.04.2018 08:00:00 13,3 11,2 10 5 11 6 NNW 1020,8 - 0,0
21.04.2018 07:00:00 14,1 11,3 2 1 5 3 NNO 1020,3 - 0,0
21.04.2018 06:00:00 14,6 12,6 3 1 5 3 ZZW 1020,3 - 0,0
21.04.2018 05:00:00 14,6 12,5 2 1 6 3 ZZW 1020,7 - 0,0
21.04.2018 04:00:00 14,4 10,8 7 4 10 5 Z 1020,9 - 0,0
21.04.2018 03:00:00 14,6 11,4 2 1 14 8 NNO 1021,1 - 0,0
21.04.2018 02:00:00 14,8 10,8 9 5 18 10 W 1021,5 - 0,0
21.04.2018 01:00:00 14,7 11,8 18 10 26 14 WNW 1021,5 - 0,0
21.04.2018 00:00:00 14,8 13,0 19 10 24 13 NW 1021,6 - 0,0
20.04.2018 23:00:00 15,2 12,7 18 10 21 11 NW 1021,7 - 0,0
20.04.2018 22:00:00 16,2 11,6 4 2 22 12 N 1021,8 - 0,0
20.04.2018 21:00:00 15,7 12,8 14 8 21 12 Z 1021,6 - 0,0
20.04.2018 20:00:00 16,1 13,6 18 10 23 12 ZZO 1020,9 - 0,0
20.04.2018 19:00:00 16,7 14,0 13 7 18 10 ZZO 1021,5 - 0,0
20.04.2018 18:00:00 17,3 13,8 15 8 19 10 ZZO 1021,8 - 0,0
20.04.2018 17:00:00 18,1 13,4 12 6 16 8 ZZO 1022,1 - 0,0
20.04.2018 16:00:00 18,0 13,3 11 6 17 9 ZO 1022,9 - 0,0
20.04.2018 15:00:00 18,3 11,4 15 8 20 11 ZO 1023,5 - 0,0
20.04.2018 14:00:00 18,1 11,6 8 4 18 10 OZO 1023,7 20 0,0
20.04.2018 13:00:00 17,8 14,9 8 4 11 6 ONO 1024,1 - 0,0
20.04.2018 12:00:00 16,8 14,1 9 5 14 8 N 1024,3 - 0,0
20.04.2018 11:00:00 16,6 12,3 12 6 16 9 NNW 1024,3 20 0,0
20.04.2018 10:00:00 15,8 10,3 17 9 24 13 NW 1024,1 - 0,0
20.04.2018 09:00:00 15,2 10,6 12 7 18 10 NW 1023,9 - 0,0
20.04.2018 08:00:00 14,6 9,6 16 9 20 11 WNW 1023,7 20 0,0
20.04.2018 07:00:00 13,4 9,3 12 6 14 8 NW 1023,7 - 0,0
20.04.2018 06:00:00 12,5 9,9 9 5 13 7 NNW 1023,5 - 0,0
20.04.2018 05:00:00 14,3 9,7 6 3 11 6 NNW 1023,5 20 0,0
20.04.2018 04:00:00 13,7 10,1 5 3 13 7 NNW 1023,8 - 0,0
20.04.2018 03:00:00 14,0 10,6 10 6 14 7 NW 1024,1 - 0,0
20.04.2018 02:00:00 15,1 11,3 3 2 13 7 NO 1024,4 - 0,0
20.04.2018 01:00:00 15,7 10,9 5 3 9 5 WZW 1024,8 - 0,0
20.04.2018 00:00:00 15,0 12,5 5 3 15 8 Z 1025,1 - 0,0
19.04.2018 23:00:00 15,0 12,3 9 5 14 8 WNW 1025,2 - 0,0
19.04.2018 22:00:00 15,7 11,9 5 3 11 6 ZW 1025,0 - 0,0
19.04.2018 21:00:00 16,2 10,7 10 5 19 11 ZZW 1024,3 - 0,0
19.04.2018 20:00:00 15,5 13,0 10 5 23 12 OZO 1024,5 25 0,0
19.04.2018 19:00:00 16,0 13,5 13 7 23 12 ZZO 1024,7 - 0,0
19.04.2018 18:00:00 16,5 13,2 16 9 22 12 ZO 1024,9 - 0,0
19.04.2018 17:00:00 17,7 13,4 14 8 22 12 ZO 1025,1 - 0,0
19.04.2018 16:00:00 17,4 14,3 11 6 18 10 O 1025,5 - 0,0
19.04.2018 15:00:00 18,0 13,5 9 5 16 8 OZO 1026,0 - 0,0
19.04.2018 14:00:00 17,7 14,0 6 4 16 9 NO 1026,5 - 0,0
19.04.2018 13:00:00 17,4 14,1 14 7 20 11 N 1026,9 - 0,0
19.04.2018 12:00:00 17,7 14,6 16 9 23 13 N 1027,0 - 0,0
19.04.2018 11:00:00 17,1 13,0 14 8 18 10 NNW 1026,9 - 0,0
19.04.2018 10:00:00 16,7 13,2 4 2 11 6 NW 1026,6 - 0,0
19.04.2018 09:00:00 15,7 12,1 2 1 13 7 NW 1026,6 - 0,0
19.04.2018 08:00:00 15,2 10,6 4 2 11 6 NW 1026,1 18 0,0
19.04.2018 07:00:00 14,3 10,3 9 5 12 6 NNW 1025,9 - 0,0
19.04.2018 06:00:00 15,6 10,1 6 3 24 13 WNW 1025,7 - 0,0
19.04.2018 05:00:00 14,7 11,8 22 12 29 16 ZZO 1026,0 20 0,0
19.04.2018 04:00:00 15,0 12,3 25 14 29 16 ZZO 1025,9 - 0,0
19.04.2018 03:00:00 16,0 12,0 13 7 22 12 ZZO 1026,2 - 0,0
19.04.2018 02:00:00 18,2 9,5 18 10 29 15 ZZO 1026,2 - 0,0
19.04.2018 01:00:00 19,9 8,2 17 9 33 18 Z 1026,0 - 0,0
19.04.2018 00:00:00 20,8 6,7 23 12 37 20 Z 1025,9 - 0,0
18.04.2018 23:00:00 20,7 6,2 27 14 42 23 Z 1026,1 - 0,0
18.04.2018 22:00:00 20,2 6,5 26 14 37 20 Z 1025,9 - 0,0
18.04.2018 21:00:00 20,0 7,0 29 16 41 22 Z 1025,1 - 0,0
18.04.2018 20:00:00 17,3 12,4 29 16 35 19 ZZO 1025,2 - 0,0
18.04.2018 19:00:00 18,5 11,1 30 16 38 20 ZZO 1025,4 - 0,0
18.04.2018 18:00:00 17,5 13,0 33 18 42 23 ZZO 1025,6 - 0,0
18.04.2018 17:00:00 18,2 11,5 40 22 46 25 ZZO 1025,6 30 0,0
18.04.2018 16:00:00 18,1 13,2 36 19 38 21 ZZO 1025,6 - 0,0
18.04.2018 15:00:00 17,9 13,6 31 17 35 19 ZZO 1025,9 - 0,0
18.04.2018 14:00:00 17,7 13,0 31 17 35 19 ZZO 1026,0 30 0,0
18.04.2018 13:00:00 18,5 11,6 26 14 35 19 ZO 1026,2 - 0,0
18.04.2018 12:00:00 17,7 12,6 14 8 21 11 ZZO 1026,4 - 0,0
18.04.2018 11:00:00 18,2 12,0 8 5 16 9 O 1026,3 - 0,0
18.04.2018 10:00:00 17,8 9,7 5 3 10 6 NNO 1025,9 - 0,0

tt = temperatuur
td = dauwpunt
ff = windsnelheid
fx = windstoten
dd = windrichting
ppp = luchtdruk
vv = zicht
rr = neerslag

Weerstations in de omgeving